Regional Weather Roundup
Issued by NWS

Home | Current Version | Previous Version | Text Only | Print | Product List | Glossary Off
Versions: 1 2 3 4 5 6 7 8 9 10 11 12 13 14 15 16 17 18 19 20 21 22 23 24 25 26 27 28 29 30 31 32 33 34 35 36 37 38 39 40 41 42 43 44 45 46 47 48 49 50

000
ASUS43 KIND 170400
RWRIN

WEATHER ROUNDUP FOR INDIANA
NATIONAL WEATHER SERVICE INDIANAPOLIS IN
1200 AM EDT TUE OCT 17 2017

NOTE: "FAIR" INDICATES FEW OR NO CLOUDS BELOW 12,000 FEET WITH NO
SIGNIFICANT WEATHER AND/OR OBSTRUCTIONS TO VISIBILITY.

* - STATION DOES NOT REPORT WEATHER SUCH AS PRECIPITATION OR FOG.

+ - STATION NOT QUALITY CONTROLLED BY THE NATIONAL WEATHER SERVICE.
    USE DATA WITH CAUTION...ESPECIALLY DEWPOINT AND RELATIVE
    HUMIDITY OBSERVATIONS.

INZ001>003-010>013-019-020-170500-
NORTHWEST INDIANA

CITY           SKY/WX    TMP DP  RH WIND       PRES   REMARKS
MONTICELLO +   CLEAR     46  38  73 SW5       30.27S
RENSSELAER +   CLEAR     46  34  61 S6        30.26F

$$

LMZ046-743>745-170500-
SOUTHERN LAKE MICHIGAN

STATION/POSITION TIME  TEMP    WIND        PRES    WAVE
                       AIR SEA DIR/SP/G            HT
                 (UTC) (F)     (DEG/KT/KT) (MB)    (FT)
BURNS HARBOR     0340   51     190/  8/ 11 1024.0S
MICHIGAN CITY    0300   54     170/ 10/ 12   N/A
5NW MICH CITY    0340   55 58  210/ 10/ 12   N/A     2

$$

INZ004-005-014>016-021>024-170500-
NORTH CENTRAL INDIANA

CITY           SKY/WX    TMP DP  RH WIND       PRES   REMARKS
GOSHEN         CLEAR     46  37  71 S5        30.24F
PERU/GRISSOM   CLEAR     44  38  82 S7        30.27S
SOUTH BEND     CLEAR     45  40  82 SW7       30.24S

$$

INZ006>009-017-018-025>027-170500-
NORTHEAST INDIANA

CITY           SKY/WX    TMP DP  RH WIND       PRES   REMARKS
FORT WAYNE     CLEAR     42  37  82 S6        30.27F
KENDALLVILLE + CLEAR     46  39  77 S8        30.25F

$$

INZ028-029-035-036-043>045-051>053-170500-
WEST CENTRAL INDIANA

CITY           SKY/WX    TMP DP  RH WIND       PRES   REMARKS
LAFAYETTE      CLEAR     46  39  76 CALM      30.28S
TERRE HAUTE    CLEAR     42  39  89 CALM      30.31S

$$

INZ030>032-037>040-046>048-054>057-064-065-170500-
CENTRAL INDIANA

CITY           SKY/WX    TMP DP  RH WIND       PRES   REMARKS
INDIANAPOLIS   CLEAR     47  39  74 SW5       30.31S
-EAGLE CREEK   CLEAR     47  38  71 S3        30.30R
KOKOMO +       CLEAR     46  39  76 S8        30.29S
MT COMFORT *+  CLEAR     41  41 100 S3        30.31S
SHELBYVILLE    CLEAR     44  39  82 CALM      30.31R

$$

INZ033-034-041-042-049-050-058-059-170500-
EAST CENTRAL INDIANA

CITY           SKY/WX    TMP DP  RH WIND       PRES   REMARKS
MUNCIE         CLEAR     48  38  68 S6        30.29F
RICHMOND +     CLEAR     39  37  93 S3        30.32R

$$

INZ060-061-067>069-081>083-085>088-170500-
SOUTHWEST INDIANA

CITY           SKY/WX    TMP DP  RH WIND       PRES   REMARKS
EVANSVILLE     CLEAR     46  41  82 CALM      30.33F
HUNTINGBURG +  CLEAR     44  41  89 CALM      30.33F

$$

INZ062-063-066-070>080-084-089>092-170500-
SOUTH CENTRAL AND SOUTHEAST INDIANA

CITY           SKY/WX    TMP DP  RH WIND       PRES   REMARKS
BLOOMINGTON    CLEAR     42  38  85 CALM      30.31S
MADISON *+     CLEAR     41  39  93 CALM      30.34S
SEYMOUR +      CLEAR     41  39  93 CALM      30.33R

$$





USA.gov is the U.S. government's official web portal to all federal, state and local government web resources and services.